owner,sensor,date,latitude,longitude,air_pressure(mBar),qcFlag 
WAVCIS,ioos:station:WAVCIS:CSI16:1,2009-06-01T00:00:00Z,29.4012,-89.0355,1011.94,11111222 
WAVCIS,ioos:station:WAVCIS:CSI16:1,2009-06-01T01:00:00Z,29.4012,-89.0355,1011.94,11111222 
WAVCIS,ioos:station:WAVCIS:CSI16:1,2009-06-01T02:00:00Z,29.4012,-89.0355,1012.15,11111222 
WAVCIS,ioos:station:WAVCIS:CSI16:1,2009-06-01T03:00:00Z,29.4012,-89.0355,1012.64,11111222 
WAVCIS,ioos:station:WAVCIS:CSI16:1,2009-06-01T04:00:00Z,29.4012,-89.0355,1012.98,11111222 
WAVCIS,ioos:station:WAVCIS:CSI16:1,2009-06-01T05:00:00Z,29.4012,-89.0355,1012.66,11111222 
WAVCIS,ioos:station:WAVCIS:CSI16:1,2009-06-01T06:00:00Z,29.4012,-89.0355,1012.43,11111222 
WAVCIS,ioos:station:WAVCIS:CSI16:1,2009-06-01T07:00:00Z,29.4012,-89.0355,1012.44,11111222 
WAVCIS,ioos:station:WAVCIS:CSI16:1,2009-06-01T08:00:00Z,29.4012,-89.0355,1011.95,11111222 
WAVCIS,ioos:station:WAVCIS:CSI16:1,2009-06-01T09:00:00Z,29.4012,-89.0355,1012.12,11111222 
WAVCIS,ioos:station:WAVCIS:CSI16:1,2009-06-01T10:00:00Z,29.4012,-89.0355,1012.28,11111222 
WAVCIS,ioos:station:WAVCIS:CSI16:1,2009-06-01T11:00:00Z,29.4012,-89.0355,1012.87,11111222 
WAVCIS,ioos:station:WAVCIS:CSI16:1,2009-06-01T12:00:00Z,29.4012,-89.0355,1013.49,11111222 
WAVCIS,ioos:station:WAVCIS:CSI16:1,2009-06-01T13:00:00Z,29.4012,-89.0355,1013.84,11111222 
WAVCIS,ioos:station:WAVCIS:CSI16:1,2009-06-01T14:00:00Z,29.4012,-89.0355,1014.38,11111222 
WAVCIS,ioos:station:WAVCIS:CSI16:1,2009-06-01T15:00:00Z,29.4012,-89.0355,1014.49,11111222 
WAVCIS,ioos:station:WAVCIS:CSI16:1,2009-06-01T16:00:00Z,29.4012,-89.0355,1014.76,11111222 
WAVCIS,ioos:station:WAVCIS:CSI16:1,2009-06-01T17:00:00Z,29.4012,-89.0355,1014.88,11111222 
WAVCIS,ioos:station:WAVCIS:CSI16:1,2009-06-01T18:00:00Z,29.4012,-89.0355,1014.62,11111222 
WAVCIS,ioos:station:WAVCIS:CSI16:1,2009-06-01T19:00:00Z,29.4012,-89.0355,1014.25,11111222 
WAVCIS,ioos:station:WAVCIS:CSI16:1,2009-06-01T20:00:00Z,29.4012,-89.0355,1014.09,11111222 
WAVCIS,ioos:station:WAVCIS:CSI16:1,2009-06-01T21:00:00Z,29.4012,-89.0355,1013.99,11111222 
WAVCIS,ioos:station:WAVCIS:CSI16:1,2009-06-01T22:00:00Z,29.4012,-89.0355,1013.66,11111222 
WAVCIS,ioos:station:WAVCIS:CSI16:1,2009-06-01T23:00:00Z,29.4012,-89.0355,1013.32,11111222 
WAVCIS,ioos:station:WAVCIS:CSI16:1,2009-06-02T00:00:00Z,29.4012,-89.0355,1013.41,11111222 
WAVCIS,ioos:station:WAVCIS:CSI16:1,2009-06-02T01:00:00Z,29.4012,-89.0355,1013.77,11111222 
WAVCIS,ioos:station:WAVCIS:CSI16:1,2009-06-02T02:00:00Z,29.4012,-89.0355,1013.54,11111222 
WAVCIS,ioos:station:WAVCIS:CSI16:1,2009-06-02T03:00:00Z,29.4012,-89.0355,1013.86,11111222 
WAVCIS,ioos:station:WAVCIS:CSI16:1,2009-06-02T04:00:00Z,29.4012,-89.0355,1013.79,11111222 
WAVCIS,ioos:station:WAVCIS:CSI16:1,2009-06-02T05:00:00Z,29.4012,-89.0355,1013.34,11111222 
WAVCIS,ioos:station:WAVCIS:CSI16:1,2009-06-02T06:00:00Z,29.4012,-89.0355,1013.08,11111222 
WAVCIS,ioos:station:WAVCIS:CSI16:1,2009-06-02T07:00:00Z,29.4012,-89.0355,1012.26,11111222 
WAVCIS,ioos:station:WAVCIS:CSI16:1,2009-06-02T08:00:00Z,29.4012,-89.0355,1012.22,11111222 
WAVCIS,ioos:station:WAVCIS:CSI16:1,2009-06-02T09:00:00Z,29.4012,-89.0355,1012.6,11111222 
WAVCIS,ioos:station:WAVCIS:CSI16:1,2009-06-02T10:00:00Z,29.4012,-89.0355,1013.09,11111222 
WAVCIS,ioos:station:WAVCIS:CSI16:1,2009-06-02T11:00:00Z,29.4012,-89.0355,1013.52,11111222 
WAVCIS,ioos:station:WAVCIS:CSI16:1,2009-06-02T12:00:00Z,29.4012,-89.0355,1013.71,11111222 
WAVCIS,ioos:station:WAVCIS:CSI16:1,2009-06-02T13:00:00Z,29.4012,-89.0355,1014.04,11111222 
WAVCIS,ioos:station:WAVCIS:CSI16:1,2009-06-02T14:00:00Z,29.4012,-89.0355,1014.39,11111222 
WAVCIS,ioos:station:WAVCIS:CSI16:1,2009-06-02T15:00:00Z,29.4012,-89.0355,1014.75,11111222 
WAVCIS,ioos:station:WAVCIS:CSI16:1,2009-06-02T16:00:00Z,29.4012,-89.0355,1014.72,11111222 
WAVCIS,ioos:station:WAVCIS:CSI16:1,2009-06-02T17:00:00Z,29.4012,-89.0355,1014.88,11111222 
WAVCIS,ioos:station:WAVCIS:CSI16:1,2009-06-02T18:00:00Z,29.4012,-89.0355,1014.3,11111222 
WAVCIS,ioos:station:WAVCIS:CSI16:1,2009-06-02T19:00:00Z,29.4012,-89.0355,1014.04,11111222 
WAVCIS,ioos:station:WAVCIS:CSI16:1,2009-06-02T20:00:00Z,29.4012,-89.0355,1014.0,11111222 
WAVCIS,ioos:station:WAVCIS:CSI16:1,2009-06-02T21:00:00Z,29.4012,-89.0355,1013.95,11111222 
WAVCIS,ioos:station:WAVCIS:CSI16:1,2009-06-02T22:00:00Z,29.4012,-89.0355,1012.42,11111222 
WAVCIS,ioos:station:WAVCIS:CSI16:1,2009-06-02T23:00:00Z,29.4012,-89.0355,1012.76,11111222 
WAVCIS,ioos:station:WAVCIS:CSI16:1,2009-06-03T00:00:00Z,29.4012,-89.0355,1012.15,11111222 
WAVCIS,ioos:station:WAVCIS:CSI16:1,2009-06-03T01:00:00Z,29.4012,-89.0355,1013.05,11111222 
WAVCIS,ioos:station:WAVCIS:CSI16:1,2009-06-03T02:00:00Z,29.4012,-89.0355,1012.87,11111222 
WAVCIS,ioos:station:WAVCIS:CSI16:1,2009-06-03T03:00:00Z,29.4012,-89.0355,1013.44,11111222 
WAVCIS,ioos:station:WAVCIS:CSI16:1,2009-06-03T04:00:00Z,29.4012,-89.0355,1013.12,11111222 
WAVCIS,ioos:station:WAVCIS:CSI16:1,2009-06-03T05:00:00Z,29.4012,-89.0355,1012.74,11111222 
WAVCIS,ioos:station:WAVCIS:CSI16:1,2009-06-03T06:00:00Z,29.4012,-89.0355,1011.52,11111222 
WAVCIS,ioos:station:WAVCIS:CSI16:1,2009-06-03T07:00:00Z,29.4012,-89.0355,1009.94,11111222 
WAVCIS,ioos:station:WAVCIS:CSI16:1,2009-06-03T08:00:00Z,29.4012,-89.0355,1010.18,11111222 
WAVCIS,ioos:station:WAVCIS:CSI16:1,2009-06-03T09:00:00Z,29.4012,-89.0355,1011.4,11111222 
WAVCIS,ioos:station:WAVCIS:CSI16:1,2009-06-03T10:00:00Z,29.4012,-89.0355,1011.25,11111222 
WAVCIS,ioos:station:WAVCIS:CSI16:1,2009-06-03T11:00:00Z,29.4012,-89.0355,1011.7,11111222 
WAVCIS,ioos:station:WAVCIS:CSI16:1,2009-06-03T12:00:00Z,29.4012,-89.0355,1012.34,11111222 
WAVCIS,ioos:station:WAVCIS:CSI16:1,2009-06-03T13:00:00Z,29.4012,-89.0355,1012.16,11111222 
WAVCIS,ioos:station:WAVCIS:CSI16:1,2009-06-03T14:00:00Z,29.4012,-89.0355,1012.17,11111222 
WAVCIS,ioos:station:WAVCIS:CSI16:1,2009-06-03T15:00:00Z,29.4012,-89.0355,1012.52,11111222 
WAVCIS,ioos:station:WAVCIS:CSI16:1,2009-06-03T16:00:00Z,29.4012,-89.0355,1012.86,11111222 
WAVCIS,ioos:station:WAVCIS:CSI16:1,2009-06-03T17:00:00Z,29.4012,-89.0355,1012.49,11111222 
WAVCIS,ioos:station:WAVCIS:CSI16:1,2009-06-03T18:00:00Z,29.4012,-89.0355,1011.25,11111222 
WAVCIS,ioos:station:WAVCIS:CSI16:1,2009-06-03T19:00:00Z,29.4012,-89.0355,1010.0,11111222 
WAVCIS,ioos:station:WAVCIS:CSI16:1,2009-06-03T20:00:00Z,29.4012,-89.0355,1009.73,11111222 
WAVCIS,ioos:station:WAVCIS:CSI16:1,2009-06-03T21:00:00Z,29.4012,-89.0355,1009.8,11111222 
WAVCIS,ioos:station:WAVCIS:CSI16:1,2009-06-03T22:00:00Z,29.4012,-89.0355,1009.01,11111222 
WAVCIS,ioos:station:WAVCIS:CSI16:1,2009-06-03T23:00:00Z,29.4012,-89.0355,1008.73,11111222 
WAVCIS,ioos:station:WAVCIS:CSI16:1,2009-06-04T00:00:00Z,29.4012,-89.0355,1008.91,11111222 
WAVCIS,ioos:station:WAVCIS:CSI16:1,2009-06-04T01:00:00Z,29.4012,-89.0355,1009.14,11111222 
WAVCIS,ioos:station:WAVCIS:CSI16:1,2009-06-04T02:00:00Z,29.4012,-89.0355,1009.5,11111222 
WAVCIS,ioos:station:WAVCIS:CSI16:1,2009-06-04T03:00:00Z,29.4012,-89.0355,1009.97,11111222 
WAVCIS,ioos:station:WAVCIS:CSI16:1,2009-06-04T04:00:00Z,29.4012,-89.0355,1010.28,11111222 
WAVCIS,ioos:station:WAVCIS:CSI16:1,2009-06-04T05:00:00Z,29.4012,-89.0355,1009.75,11111222 
WAVCIS,ioos:station:WAVCIS:CSI16:1,2009-06-04T06:00:00Z,29.4012,-89.0355,1009.36,11111222 
WAVCIS,ioos:station:WAVCIS:CSI16:1,2009-06-04T07:00:00Z,29.4012,-89.0355,1009.11,11111222 
WAVCIS,ioos:station:WAVCIS:CSI16:1,2009-06-04T08:00:00Z,29.4012,-89.0355,1008.56,11111222 
WAVCIS,ioos:station:WAVCIS:CSI16:1,2009-06-04T09:00:00Z,29.4012,-89.0355,1008.21,11111222 
WAVCIS,ioos:station:WAVCIS:CSI16:1,2009-06-04T10:00:00Z,29.4012,-89.0355,1008.11,11111222 
WAVCIS,ioos:station:WAVCIS:CSI16:1,2009-06-04T11:00:00Z,29.4012,-89.0355,1008.46,11111222 
WAVCIS,ioos:station:WAVCIS:CSI16:1,2009-06-04T12:00:00Z,29.4012,-89.0355,1008.4,11111222 
WAVCIS,ioos:station:WAVCIS:CSI16:1,2009-06-04T13:00:00Z,29.4012,-89.0355,1008.58,11111222 
WAVCIS,ioos:station:WAVCIS:CSI16:1,2009-06-04T14:00:00Z,29.4012,-89.0355,1008.92,11111222 
WAVCIS,ioos:station:WAVCIS:CSI16:1,2009-06-04T15:00:00Z,29.4012,-89.0355,1009.2,11111222 
WAVCIS,ioos:station:WAVCIS:CSI16:1,2009-06-04T16:00:00Z,29.4012,-89.0355,1008.79,11111222 
WAVCIS,ioos:station:WAVCIS:CSI16:1,2009-06-04T17:00:00Z,29.4012,-89.0355,1008.51,11111222 
WAVCIS,ioos:station:WAVCIS:CSI16:1,2009-06-04T18:00:00Z,29.4012,-89.0355,1008.02,11111222 
WAVCIS,ioos:station:WAVCIS:CSI16:1,2009-06-04T19:00:00Z,29.4012,-89.0355,1007.61,11111222 
WAVCIS,ioos:station:WAVCIS:CSI16:1,2009-06-04T20:00:00Z,29.4012,-89.0355,1006.855,11111222 
WAVCIS,ioos:station:WAVCIS:CSI16:1,2009-06-04T21:00:00Z,29.4012,-89.0355,1006.272,11111222 
WAVCIS,ioos:station:WAVCIS:CSI16:1,2009-06-04T22:00:00Z,29.4012,-89.0355,1005.365,11111222 
WAVCIS,ioos:station:WAVCIS:CSI16:1,2009-06-04T23:00:00Z,29.4012,-89.0355,1005.518,11111222 
WAVCIS,ioos:station:WAVCIS:CSI16:1,2009-06-05T00:00:00Z,29.4012,-89.0355,1005.531,11111222 
WAVCIS,ioos:station:WAVCIS:CSI16:1,2009-06-05T01:00:00Z,29.4012,-89.0355,1006.211,11111222 
WAVCIS,ioos:station:WAVCIS:CSI16:1,2009-06-05T02:00:00Z,29.4012,-89.0355,1006.383,11111222 
WAVCIS,ioos:station:WAVCIS:CSI16:1,2009-06-05T03:00:00Z,29.4012,-89.0355,1007.06,11111222 
WAVCIS,ioos:station:WAVCIS:CSI16:1,2009-06-05T04:00:00Z,29.4012,-89.0355,1007.63,11111222 
WAVCIS,ioos:station:WAVCIS:CSI16:1,2009-06-05T05:00:00Z,29.4012,-89.0355,1006.711,11111222 
WAVCIS,ioos:station:WAVCIS:CSI16:1,2009-06-05T06:00:00Z,29.4012,-89.0355,1006.328,11111222 
WAVCIS,ioos:station:WAVCIS:CSI16:1,2009-06-05T07:00:00Z,29.4012,-89.0355,1005.73,11111222 
WAVCIS,ioos:station:WAVCIS:CSI16:1,2009-06-05T08:00:00Z,29.4012,-89.0355,1006.132,11111222 
WAVCIS,ioos:station:WAVCIS:CSI16:1,2009-06-05T09:00:00Z,29.4012,-89.0355,1005.987,11111222 
WAVCIS,ioos:station:WAVCIS:CSI16:1,2009-06-05T10:00:00Z,29.4012,-89.0355,1006.346,11111222 
WAVCIS,ioos:station:WAVCIS:CSI16:1,2009-06-05T11:00:00Z,29.4012,-89.0355,1006.882,11111222 
WAVCIS,ioos:station:WAVCIS:CSI16:1,2009-06-05T12:00:00Z,29.4012,-89.0355,1007.04,11111222 
WAVCIS,ioos:station:WAVCIS:CSI16:1,2009-06-05T13:00:00Z,29.4012,-89.0355,1007.93,11111222 
WAVCIS,ioos:station:WAVCIS:CSI16:1,2009-06-05T14:00:00Z,29.4012,-89.0355,1008.73,11111222 
WAVCIS,ioos:station:WAVCIS:CSI16:1,2009-06-05T15:00:00Z,29.4012,-89.0355,1008.96,11111222 
WAVCIS,ioos:station:WAVCIS:CSI16:1,2009-06-05T16:00:00Z,29.4012,-89.0355,1009.24,11111222 
WAVCIS,ioos:station:WAVCIS:CSI16:1,2009-06-05T17:00:00Z,29.4012,-89.0355,1009.31,11111222 
WAVCIS,ioos:station:WAVCIS:CSI16:1,2009-06-05T18:00:00Z,29.4012,-89.0355,1009.19,11111222 
WAVCIS,ioos:station:WAVCIS:CSI16:1,2009-06-05T19:00:00Z,29.4012,-89.0355,1008.85,11111222 
WAVCIS,ioos:station:WAVCIS:CSI16:1,2009-06-05T20:00:00Z,29.4012,-89.0355,1008.46,11111222 
WAVCIS,ioos:station:WAVCIS:CSI16:1,2009-06-05T21:00:00Z,29.4012,-89.0355,1008.44,11111222 
WAVCIS,ioos:station:WAVCIS:CSI16:1,2009-06-05T22:00:00Z,29.4012,-89.0355,1008.36,11111222 
WAVCIS,ioos:station:WAVCIS:CSI16:1,2009-06-05T23:00:00Z,29.4012,-89.0355,1008.22,11111222 
WAVCIS,ioos:station:WAVCIS:CSI16:1,2009-06-06T00:00:00Z,29.4012,-89.0355,1008.28,11111222 
WAVCIS,ioos:station:WAVCIS:CSI16:1,2009-06-06T01:00:00Z,29.4012,-89.0355,1008.83,11111222 
WAVCIS,ioos:station:WAVCIS:CSI16:1,2009-06-06T02:00:00Z,29.4012,-89.0355,1009.11,11111222 
WAVCIS,ioos:station:WAVCIS:CSI16:1,2009-06-06T03:00:00Z,29.4012,-89.0355,1009.64,11111222 
WAVCIS,ioos:station:WAVCIS:CSI16:1,2009-06-06T04:00:00Z,29.4012,-89.0355,1009.99,11111222 
WAVCIS,ioos:station:WAVCIS:CSI16:1,2009-06-06T05:00:00Z,29.4012,-89.0355,1010.01,11111222 
WAVCIS,ioos:station:WAVCIS:CSI16:1,2009-06-06T06:00:00Z,29.4012,-89.0355,1009.63,11111222 
WAVCIS,ioos:station:WAVCIS:CSI16:1,2009-06-06T07:00:00Z,29.4012,-89.0355,1009.39,11111222 
WAVCIS,ioos:station:WAVCIS:CSI16:1,2009-06-06T08:00:00Z,29.4012,-89.0355,1009.18,11111222 
WAVCIS,ioos:station:WAVCIS:CSI16:1,2009-06-06T09:00:00Z,29.4012,-89.0355,1009.25,11111222 
WAVCIS,ioos:station:WAVCIS:CSI16:1,2009-06-06T10:00:00Z,29.4012,-89.0355,1009.52,11111222 
WAVCIS,ioos:station:WAVCIS:CSI16:1,2009-06-06T11:00:00Z,29.4012,-89.0355,1009.97,11111222 
WAVCIS,ioos:station:WAVCIS:CSI16:1,2009-06-06T12:00:00Z,29.4012,-89.0355,1010.51,11111222 
WAVCIS,ioos:station:WAVCIS:CSI16:1,2009-06-06T13:00:00Z,29.4012,-89.0355,1011.29,11111222 
WAVCIS,ioos:station:WAVCIS:CSI16:1,2009-06-06T14:00:00Z,29.4012,-89.0355,1012.05,11111222 
WAVCIS,ioos:station:WAVCIS:CSI16:1,2009-06-06T15:00:00Z,29.4012,-89.0355,1012.49,11111222 
WAVCIS,ioos:station:WAVCIS:CSI16:1,2009-06-06T16:00:00Z,29.4012,-89.0355,1012.53,11111222 
WAVCIS,ioos:station:WAVCIS:CSI16:1,2009-06-06T17:00:00Z,29.4012,-89.0355,1012.82,11111222 
WAVCIS,ioos:station:WAVCIS:CSI16:1,2009-06-06T18:00:00Z,29.4012,-89.0355,1012.67,11111222 
WAVCIS,ioos:station:WAVCIS:CSI16:1,2009-06-06T19:00:00Z,29.4012,-89.0355,1012.56,11111222 
WAVCIS,ioos:station:WAVCIS:CSI16:1,2009-06-06T20:00:00Z,29.4012,-89.0355,1012.31,11111222 
WAVCIS,ioos:station:WAVCIS:CSI16:1,2009-06-06T21:00:00Z,29.4012,-89.0355,1011.79,11111222 
WAVCIS,ioos:station:WAVCIS:CSI16:1,2009-06-06T22:00:00Z,29.4012,-89.0355,1011.36,11111222 
WAVCIS,ioos:station:WAVCIS:CSI16:1,2009-06-06T23:00:00Z,29.4012,-89.0355,1010.88,11111222 
WAVCIS,ioos:station:WAVCIS:CSI16:1,2009-06-07T00:00:00Z,29.4012,-89.0355,1010.98,11111222 
WAVCIS,ioos:station:WAVCIS:CSI16:1,2009-06-07T01:00:00Z,29.4012,-89.0355,1011.3,11111222 
WAVCIS,ioos:station:WAVCIS:CSI16:1,2009-06-07T02:00:00Z,29.4012,-89.0355,1011.84,11111222 
WAVCIS,ioos:station:WAVCIS:CSI16:1,2009-06-07T03:00:00Z,29.4012,-89.0355,1012.29,11111222 
WAVCIS,ioos:station:WAVCIS:CSI16:1,2009-06-07T04:00:00Z,29.4012,-89.0355,1012.47,11111222 
WAVCIS,ioos:station:WAVCIS:CSI16:1,2009-06-07T05:00:00Z,29.4012,-89.0355,1011.97,11111222 
WAVCIS,ioos:station:WAVCIS:CSI16:1,2009-06-07T06:00:00Z,29.4012,-89.0355,1011.22,11111222 
WAVCIS,ioos:station:WAVCIS:CSI16:1,2009-06-07T07:00:00Z,29.4012,-89.0355,1011.22,11111222 
WAVCIS,ioos:station:WAVCIS:CSI16:1,2009-06-07T08:00:00Z,29.4012,-89.0355,1011.2,11111222 
WAVCIS,ioos:station:WAVCIS:CSI16:1,2009-06-07T09:00:00Z,29.4012,-89.0355,1011.25,11111222 
WAVCIS,ioos:station:WAVCIS:CSI16:1,2009-06-07T10:00:00Z,29.4012,-89.0355,1011.29,11111222 
WAVCIS,ioos:station:WAVCIS:CSI16:1,2009-06-07T11:00:00Z,29.4012,-89.0355,1011.55,11111222 
WAVCIS,ioos:station:WAVCIS:CSI16:1,2009-06-07T12:00:00Z,29.4012,-89.0355,1011.82,11111222 
WAVCIS,ioos:station:WAVCIS:CSI16:1,2009-06-07T13:00:00Z,29.4012,-89.0355,1012.29,11111222 
WAVCIS,ioos:station:WAVCIS:CSI16:1,2009-06-07T14:00:00Z,29.4012,-89.0355,1012.92,11111222 
WAVCIS,ioos:station:WAVCIS:CSI16:1,2009-06-07T15:00:00Z,29.4012,-89.0355,1013.23,11111222 
WAVCIS,ioos:station:WAVCIS:CSI16:1,2009-06-07T16:00:00Z,29.4012,-89.0355,1013.25,11111222 
WAVCIS,ioos:station:WAVCIS:CSI16:1,2009-06-07T17:00:00Z,29.4012,-89.0355,1013.22,11111222 
WAVCIS,ioos:station:WAVCIS:CSI16:1,2009-06-07T18:00:00Z,29.4012,-89.0355,1012.8,11111222 
WAVCIS,ioos:station:WAVCIS:CSI16:1,2009-06-07T19:00:00Z,29.4012,-89.0355,1012.68,11111222 
WAVCIS,ioos:station:WAVCIS:CSI16:1,2009-06-07T20:00:00Z,29.4012,-89.0355,1012.49,11111222 
WAVCIS,ioos:station:WAVCIS:CSI16:1,2009-06-07T21:00:00Z,29.4012,-89.0355,1012.12,11111222 
WAVCIS,ioos:station:WAVCIS:CSI16:1,2009-06-07T22:00:00Z,29.4012,-89.0355,1011.65,11111222 
WAVCIS,ioos:station:WAVCIS:CSI16:1,2009-06-07T23:00:00Z,29.4012,-89.0355,1011.74,11111222 
WAVCIS,ioos:station:WAVCIS:CSI16:1,2009-06-08T00:00:00Z,29.4012,-89.0355,1011.78,11111222 
WAVCIS,ioos:station:WAVCIS:CSI16:1,2009-06-08T01:00:00Z,29.4012,-89.0355,1012.19,11111222 
WAVCIS,ioos:station:WAVCIS:CSI16:1,2009-06-08T02:00:00Z,29.4012,-89.0355,1012.8,11111222 
WAVCIS,ioos:station:WAVCIS:CSI16:1,2009-06-08T03:00:00Z,29.4012,-89.0355,1012.88,11111222 
WAVCIS,ioos:station:WAVCIS:CSI16:1,2009-06-08T04:00:00Z,29.4012,-89.0355,1012.82,11111222 
WAVCIS,ioos:station:WAVCIS:CSI16:1,2009-06-08T05:00:00Z,29.4012,-89.0355,1012.67,11111222 
WAVCIS,ioos:station:WAVCIS:CSI16:1,2009-06-08T06:00:00Z,29.4012,-89.0355,1012.3,11111222 
WAVCIS,ioos:station:WAVCIS:CSI16:1,2009-06-08T07:00:00Z,29.4012,-89.0355,1011.69,11111222 
WAVCIS,ioos:station:WAVCIS:CSI16:1,2009-06-08T08:00:00Z,29.4012,-89.0355,1010.93,11111222 
WAVCIS,ioos:station:WAVCIS:CSI16:1,2009-06-08T09:00:00Z,29.4012,-89.0355,1010.75,11111222 
WAVCIS,ioos:station:WAVCIS:CSI16:1,2009-06-08T10:00:00Z,29.4012,-89.0355,1010.51,11111222 
WAVCIS,ioos:station:WAVCIS:CSI16:1,2009-06-08T11:00:00Z,29.4012,-89.0355,1010.86,11111222 
WAVCIS,ioos:station:WAVCIS:CSI16:1,2009-06-08T12:00:00Z,29.4012,-89.0355,1011.29,11111222 
WAVCIS,ioos:station:WAVCIS:CSI16:1,2009-06-08T13:00:00Z,29.4012,-89.0355,1012.08,11111222 
WAVCIS,ioos:station:WAVCIS:CSI16:1,2009-06-08T14:00:00Z,29.4012,-89.0355,1012.88,11111222 
WAVCIS,ioos:station:WAVCIS:CSI16:1,2009-06-08T15:00:00Z,29.4012,-89.0355,1012.77,11111222 
WAVCIS,ioos:station:WAVCIS:CSI16:1,2009-06-08T16:00:00Z,29.4012,-89.0355,1013.49,11111222 
WAVCIS,ioos:station:WAVCIS:CSI16:1,2009-06-08T17:00:00Z,29.4012,-89.0355,1013.71,11111222 
WAVCIS,ioos:station:WAVCIS:CSI16:1,2009-06-08T18:00:00Z,29.4012,-89.0355,1013.61,11111222 
WAVCIS,ioos:station:WAVCIS:CSI16:1,2009-06-08T19:00:00Z,29.4012,-89.0355,1013.53,11111222 
WAVCIS,ioos:station:WAVCIS:CSI16:1,2009-06-08T20:00:00Z,29.4012,-89.0355,1013.14,11111222 
WAVCIS,ioos:station:WAVCIS:CSI16:1,2009-06-08T21:00:00Z,29.4012,-89.0355,1012.83,11111222 
WAVCIS,ioos:station:WAVCIS:CSI16:1,2009-06-08T22:00:00Z,29.4012,-89.0355,1012.66,11111222 
WAVCIS,ioos:station:WAVCIS:CSI16:1,2009-06-08T23:00:00Z,29.4012,-89.0355,1012.3,11111222 
WAVCIS,ioos:station:WAVCIS:CSI16:1,2009-06-09T00:00:00Z,29.4012,-89.0355,1012.1,11111222 
WAVCIS,ioos:station:WAVCIS:CSI16:1,2009-06-09T01:00:00Z,29.4012,-89.0355,1012.16,11111222 
WAVCIS,ioos:station:WAVCIS:CSI16:1,2009-06-09T02:00:00Z,29.4012,-89.0355,1012.34,11111222 
WAVCIS,ioos:station:WAVCIS:CSI16:1,2009-06-09T03:00:00Z,29.4012,-89.0355,1012.44,11111222 
WAVCIS,ioos:station:WAVCIS:CSI16:1,2009-06-09T04:00:00Z,29.4012,-89.0355,1012.34,11111222 
WAVCIS,ioos:station:WAVCIS:CSI16:1,2009-06-09T05:00:00Z,29.4012,-89.0355,1012.3,11111222 
WAVCIS,ioos:station:WAVCIS:CSI16:1,2009-06-09T06:00:00Z,29.4012,-89.0355,1011.95,11111222 
WAVCIS,ioos:station:WAVCIS:CSI16:1,2009-06-09T07:00:00Z,29.4012,-89.0355,1011.62,11111222 
WAVCIS,ioos:station:WAVCIS:CSI16:1,2009-06-09T08:00:00Z,29.4012,-89.0355,1011.63,11111222 
WAVCIS,ioos:station:WAVCIS:CSI16:1,2009-06-09T09:00:00Z,29.4012,-89.0355,1011.31,11111222 
WAVCIS,ioos:station:WAVCIS:CSI16:1,2009-06-09T10:00:00Z,29.4012,-89.0355,1012.14,11111222 
WAVCIS,ioos:station:WAVCIS:CSI16:1,2009-06-09T11:00:00Z,29.4012,-89.0355,1012.74,11111222 
WAVCIS,ioos:station:WAVCIS:CSI16:1,2009-06-09T12:00:00Z,29.4012,-89.0355,1012.94,11111222 
WAVCIS,ioos:station:WAVCIS:CSI16:1,2009-06-09T13:00:00Z,29.4012,-89.0355,1013.7,11111222 
WAVCIS,ioos:station:WAVCIS:CSI16:1,2009-06-09T14:00:00Z,29.4012,-89.0355,1014.59,11111222 
WAVCIS,ioos:station:WAVCIS:CSI16:1,2009-06-09T15:00:00Z,29.4012,-89.0355,1015.26,11111222 
WAVCIS,ioos:station:WAVCIS:CSI16:1,2009-06-09T16:00:00Z,29.4012,-89.0355,1015.37,11111222 
WAVCIS,ioos:station:WAVCIS:CSI16:1,2009-06-09T17:00:00Z,29.4012,-89.0355,1015.1,11111222 
WAVCIS,ioos:station:WAVCIS:CSI16:1,2009-06-09T18:00:00Z,29.4012,-89.0355,1014.69,11111222 
WAVCIS,ioos:station:WAVCIS:CSI16:1,2009-06-09T19:00:00Z,29.4012,-89.0355,1014.35,11111222 
WAVCIS,ioos:station:WAVCIS:CSI16:1,2009-06-09T20:00:00Z,29.4012,-89.0355,1013.91,11111222 
WAVCIS,ioos:station:WAVCIS:CSI16:1,2009-06-09T21:00:00Z,29.4012,-89.0355,1013.18,11111222 
WAVCIS,ioos:station:WAVCIS:CSI16:1,2009-06-09T22:00:00Z,29.4012,-89.0355,1012.85,11111222 
WAVCIS,ioos:station:WAVCIS:CSI16:1,2009-06-09T23:00:00Z,29.4012,-89.0355,1012.48,11111222 
WAVCIS,ioos:station:WAVCIS:CSI16:1,2009-06-10T00:00:00Z,29.4012,-89.0355,1012.48,11111222 
WAVCIS,ioos:station:WAVCIS:CSI16:1,2009-06-10T01:00:00Z,29.4012,-89.0355,1012.58,11111222 
WAVCIS,ioos:station:WAVCIS:CSI16:1,2009-06-10T02:00:00Z,29.4012,-89.0355,1012.89,11111222 
WAVCIS,ioos:station:WAVCIS:CSI16:1,2009-06-10T03:00:00Z,29.4012,-89.0355,1013.15,11111222 
WAVCIS,ioos:station:WAVCIS:CSI16:1,2009-06-10T04:00:00Z,29.4012,-89.0355,1012.78,11111222 
WAVCIS,ioos:station:WAVCIS:CSI16:1,2009-06-10T05:00:00Z,29.4012,-89.0355,1012.76,11111222 
WAVCIS,ioos:station:WAVCIS:CSI16:1,2009-06-10T06:00:00Z,29.4012,-89.0355,1012.42,11111222 
WAVCIS,ioos:station:WAVCIS:CSI16:1,2009-06-10T07:00:00Z,29.4012,-89.0355,1012.02,11111222 
WAVCIS,ioos:station:WAVCIS:CSI16:1,2009-06-10T08:00:00Z,29.4012,-89.0355,1011.77,11111222 
WAVCIS,ioos:station:WAVCIS:CSI16:1,2009-06-10T09:00:00Z,29.4012,-89.0355,1012.1,11111222 
WAVCIS,ioos:station:WAVCIS:CSI16:1,2009-06-10T10:00:00Z,29.4012,-89.0355,1011.9,11111222 
WAVCIS,ioos:station:WAVCIS:CSI16:1,2009-06-10T11:00:00Z,29.4012,-89.0355,1012.57,11111222 
WAVCIS,ioos:station:WAVCIS:CSI16:1,2009-06-10T12:00:00Z,29.4012,-89.0355,1013.02,11111222 
WAVCIS,ioos:station:WAVCIS:CSI16:1,2009-06-10T13:00:00Z,29.4012,-89.0355,1013.47,11111222 
WAVCIS,ioos:station:WAVCIS:CSI16:1,2009-06-10T14:00:00Z,29.4012,-89.0355,1014.22,11111222 
WAVCIS,ioos:station:WAVCIS:CSI16:1,2009-06-10T15:00:00Z,29.4012,-89.0355,1014.39,11111222 
WAVCIS,ioos:station:WAVCIS:CSI16:1,2009-06-10T16:00:00Z,29.4012,-89.0355,1014.24,11111222 
WAVCIS,ioos:station:WAVCIS:CSI16:1,2009-06-10T17:00:00Z,29.4012,-89.0355,1013.82,11111222 
WAVCIS,ioos:station:WAVCIS:CSI16:1,2009-06-10T18:00:00Z,29.4012,-89.0355,1013.21,11111222 
WAVCIS,ioos:station:WAVCIS:CSI16:1,2009-06-10T19:00:00Z,29.4012,-89.0355,1012.63,11111222 
WAVCIS,ioos:station:WAVCIS:CSI16:1,2009-06-10T20:00:00Z,29.4012,-89.0355,1012.44,11111222 
WAVCIS,ioos:station:WAVCIS:CSI16:1,2009-06-10T21:00:00Z,29.4012,-89.0355,1011.97,11111222 
WAVCIS,ioos:station:WAVCIS:CSI16:1,2009-06-10T22:00:00Z,29.4012,-89.0355,1011.9,11111222 
WAVCIS,ioos:station:WAVCIS:CSI16:1,2009-06-10T23:00:00Z,29.4012,-89.0355,1011.53,11111222 
WAVCIS,ioos:station:WAVCIS:CSI16:1,2009-06-11T00:00:00Z,29.4012,-89.0355,1011.11,11111222 
WAVCIS,ioos:station:WAVCIS:CSI16:1,2009-06-11T01:00:00Z,29.4012,-89.0355,1010.76,11111222 
WAVCIS,ioos:station:WAVCIS:CSI16:1,2009-06-11T02:00:00Z,29.4012,-89.0355,1010.76,11111222 
WAVCIS,ioos:station:WAVCIS:CSI16:1,2009-06-11T03:00:00Z,29.4012,-89.0355,1011.04,11111222 
WAVCIS,ioos:station:WAVCIS:CSI16:1,2009-06-11T04:00:00Z,29.4012,-89.0355,1011.61,11111222 
WAVCIS,ioos:station:WAVCIS:CSI16:1,2009-06-11T05:00:00Z,29.4012,-89.0355,1011.68,11111222 
WAVCIS,ioos:station:WAVCIS:CSI16:1,2009-06-11T06:00:00Z,29.4012,-89.0355,1011.12,11111222 
WAVCIS,ioos:station:WAVCIS:CSI16:1,2009-06-11T07:00:00Z,29.4012,-89.0355,1010.92,11111222 
WAVCIS,ioos:station:WAVCIS:CSI16:1,2009-06-11T08:00:00Z,29.4012,-89.0355,1011.17,11111222 
WAVCIS,ioos:station:WAVCIS:CSI16:1,2009-06-11T09:00:00Z,29.4012,-89.0355,1010.94,11111222 
WAVCIS,ioos:station:WAVCIS:CSI16:1,2009-06-11T10:00:00Z,29.4012,-89.0355,1011.01,11111222 
WAVCIS,ioos:station:WAVCIS:CSI16:1,2009-06-11T11:00:00Z,29.4012,-89.0355,1011.13,11111222 
WAVCIS,ioos:station:WAVCIS:CSI16:1,2009-06-11T12:00:00Z,29.4012,-89.0355,1011.35,11111222 
WAVCIS,ioos:station:WAVCIS:CSI16:1,2009-06-11T13:00:00Z,29.4012,-89.0355,1012.01,11111222 
WAVCIS,ioos:station:WAVCIS:CSI16:1,2009-06-11T14:00:00Z,29.4012,-89.0355,1012.43,11111222 
WAVCIS,ioos:station:WAVCIS:CSI16:1,2009-06-11T15:00:00Z,29.4012,-89.0355,1012.21,11111222 
WAVCIS,ioos:station:WAVCIS:CSI16:1,2009-06-11T16:00:00Z,29.4012,-89.0355,1011.82,11111222 
WAVCIS,ioos:station:WAVCIS:CSI16:1,2009-06-11T17:00:00Z,29.4012,-89.0355,1012.31,11111222 
WAVCIS,ioos:station:WAVCIS:CSI16:1,2009-06-11T18:00:00Z,29.4012,-89.0355,1011.83,11111222 
WAVCIS,ioos:station:WAVCIS:CSI16:1,2009-06-11T19:00:00Z,29.4012,-89.0355,1011.18,11111222 
WAVCIS,ioos:station:WAVCIS:CSI16:1,2009-06-11T20:00:00Z,29.4012,-89.0355,1011.14,11111222 
WAVCIS,ioos:station:WAVCIS:CSI16:1,2009-06-11T21:00:00Z,29.4012,-89.0355,1010.47,11111222 
WAVCIS,ioos:station:WAVCIS:CSI16:1,2009-06-11T22:00:00Z,29.4012,-89.0355,1010.73,11111222 